Westhampton Beach, NY

5:39 AM EDT on June 27, 2017 (GMT -0400)
The Gabreski

Weather History for KFOK - September, 2013

Change the Weather History Date:

Sunday, September 29, 2013

  Actual Average Record
Temperature  
Mean Temperature 54 °F -  
Max Temperature 68 °F 66 °F 80 °F (1997)
Min Temperature 39 °F 45 °F 33 °F (2000)
Degree Days  
Heating Degree Days 12    
Growing Degree Days 4 (Base 50)    
Moisture  
Dew Point 45 °F    
Average Humidity 82    
Maximum Humidity 97    
Minimum Humidity 42    
Precipitation  
Precipitation 0.00 in - - ()
Sea Level Pressure  
Sea Level Pressure 30.18 in    
Wind  
Wind Speed 2 mph (NE)    
Max Wind Speed 13 mph    
Max Gust Speed 17 mph    
Visibility 9 miles    
Events      
Averages and records for this station are not official NWS values.
T = Trace of Precipitation, MM = Missing Value Source: NWS Daily Summary

Daily Weather History Graph

Daily Weather History Graph

Search for Another Location

Airport or City:

Trip Planner

Search our weather history database for the weather conditions in past years. The results will help you decide how hot, cold, wet, or windy it might be!

Date:

Astronomy

Sep. 29, 2013 Rise Set
Actual Time 6:45 AM EDT 6:35 PM EDT
Civil Twilight 6:17 AM EDT 7:02 PM EDT
Nautical Twilight 5:46 AM EDT 7:34 PM EDT
Astronomical Twilight 5:13 AM EDT 8:06 PM EDT
Moon 1:22 AM EDT (9/29) 3:31 PM EDT (9/29)
Length of Visible Light 12h 44m
Length of Day
11h 50m
Waning Crescent, 27% of the Moon is Illuminated
Sep 29
Waning Crescent
Oct 4
New
Oct 11
First Quarter
Oct 18
Full
Oct 26
Last Quarter

Hourly Weather History & Observations

Time (EDT) Temp. Windchill Dew Point Humidity Pressure Visibility Wind Dir Wind Speed Gust Speed Precip Events Conditions
12:53 AM 45.0 °F - 43.0 °F 93% 30.25 in 10.0 mi Calm Calm - N/A   Clear
1:53 AM 44.1 °F - 42.1 °F 93% 30.25 in 9.0 mi Calm Calm - N/A   Clear
2:53 AM 45.0 °F - 44.1 °F 97% 30.23 in 1.8 mi Calm Calm - N/A   Clear
3:20 AM 44.6 °F - 42.8 °F 93% 30.22 in 0.8 mi Calm Calm - N/A   Clear
3:26 AM 44.6 °F - 42.8 °F 93% 30.22 in 2.5 mi Calm Calm - N/A   Clear
3:34 AM 44.6 °F - 42.8 °F 93% 30.22 in 7.0 mi Calm Calm - N/A   Clear
3:53 AM 43.0 °F - 42.1 °F 97% 30.22 in 10.0 mi Calm Calm - N/A   Clear
4:29 AM 42.8 °F - 39.2 °F 87% 30.21 in 10.0 mi Calm Calm - N/A   Partly Cloudy
4:53 AM 42.1 °F - 39.9 °F 92% 30.22 in 10.0 mi Calm Calm - N/A   Scattered Clouds
5:53 AM 39.9 °F - 39.0 °F 97% 30.21 in 10.0 mi Calm Calm - N/A   Scattered Clouds
6:02 AM 39.2 °F - 37.4 °F 93% 30.21 in 1.5 mi Calm Calm - N/A   Partly Cloudy
6:11 AM 41.0 °F - 39.2 °F 93% 30.21 in 3.0 mi Calm Calm - N/A   Partly Cloudy
6:53 AM 39.0 °F - 37.9 °F 96% 30.22 in 10.0 mi Calm Calm - N/A   Clear
7:53 AM 48.0 °F - 46.9 °F 96% 30.23 in 10.0 mi ENE 3.5 mph - N/A   Clear
8:53 AM 61.0 °F - 55.9 °F 83% 30.23 in 10.0 mi East 5.8 mph - N/A   Clear
9:53 AM 64.0 °F - 51.1 °F 63% 30.24 in 10.0 mi NE 8.1 mph - N/A   Clear
10:53 AM 66.0 °F - 46.0 °F 48% 30.21 in 10.0 mi NE 10.4 mph - N/A   Clear
11:53 AM 66.0 °F - 43.0 °F 43% 30.19 in 10.0 mi NE 12.7 mph - N/A   Clear
12:53 PM 68.0 °F - 44.1 °F 42% 30.20 in 10.0 mi NE 9.2 mph 17.3 mph N/A   Clear
1:53 PM 66.9 °F - 48.0 °F 51% 30.17 in 10.0 mi East 8.1 mph - N/A   Clear
2:53 PM 64.9 °F - 51.1 °F 61% 30.15 in 10.0 mi Variable 5.8 mph - N/A   Clear
3:53 PM 64.0 °F - 51.1 °F 63% 30.14 in 10.0 mi Variable 5.8 mph - N/A   Clear
4:53 PM 63.0 °F - 51.1 °F 65% 30.13 in 10.0 mi ESE 6.9 mph - N/A   Clear
5:53 PM 61.0 °F - 51.1 °F 70% 30.13 in 10.0 mi East 4.6 mph - N/A   Clear
6:53 PM 55.9 °F - 50.0 °F 80% 30.12 in 10.0 mi East 3.5 mph - N/A   Clear
7:53 PM 51.1 °F - 48.0 °F 89% 30.13 in 10.0 mi Calm Calm - N/A   Clear
8:53 PM 46.0 °F - 43.0 °F 89% 30.12 in 10.0 mi Calm Calm - N/A   Clear
9:19 PM 46.4 °F 45.2 °F 44.6 °F 93% 30.12 in 10.0 mi NW 3.5 mph - N/A   Mostly Cloudy
9:53 PM 46.9 °F - 45.0 °F 93% 30.12 in 10.0 mi Calm Calm - N/A   Scattered Clouds
10:16 PM 48.2 °F - 46.4 °F 93% 30.12 in 10.0 mi NNW 4.6 mph - N/A   Mostly Cloudy
10:53 PM 51.1 °F - 48.9 °F 92% 30.12 in 10.0 mi NNW 3.5 mph - N/A   Mostly Cloudy
11:27 PM 51.8 °F - 50.0 °F 94% 30.11 in 10.0 mi Calm Calm - N/A   Mostly Cloudy
11:53 PM 52.0 °F - 50.0 °F 93% 30.11 in 10.0 mi Calm Calm - N/A   Mostly Cloudy